Weather History for Meknes, Morocco

Change the Weather History Date:

Monday, December 24, 2012

  Actual Average Record
Temperature  
Mean Temperature 62 °F -  
Max Temperature 77 °F - - ()
Min Temperature 47 °F - - ()
Degree Days  
Heating Degree Days 3    
Growing Degree Days 12 (Base 50)    
Moisture  
Dew Point 36 °F    
Average Humidity 40    
Maximum Humidity 76    
Minimum Humidity 9    
Precipitation  
Precipitation 0.00 in - - ()
Sea Level Pressure  
Sea Level Pressure 30.14 in    
Wind  
Wind Speed 5 mph ()    
Max Wind Speed 9 mph    
Max Gust Speed -    
Visibility 6.2 miles    
Events      
T = Trace of Precipitation, MM = Missing Value Source: Averaged Metar Reports

Daily Weather History Graph

Daily Weather History Graph

Search for Another Location

Airport:

Trip Planner

Search our weather history database for the weather conditions in past years. The results will help you decide how hot, cold, wet, or windy it might be!

Date:

Astronomy

Dec. 24, 2012 Rise Set
Actual Time 7:24 AM WET 5:18 PM WET
Civil Twilight 6:57 AM WET 5:46 PM WET
Nautical Twilight 6:25 AM WET 6:17 PM WET
Astronomical Twilight 5:55 AM WET 6:48 PM WET
Moon 2:33 PM WET (12/24) 3:54 AM WET (12/24)
Length of Visible Light 10h 49m
Length of Day
9h 54m
Waxing Gibbous, 87% of the Moon is Illuminated
Dec 24
Waxing Gibbous
Dec 28
Full
Jan 5
Last Quarter
Jan 11
New
Jan 18
First Quarter

Hourly Weather History & Observations

Time (WET) Temp. Dew Point Humidity Pressure Visibility Wind Dir Wind Speed Gust Speed Precip Events Conditions
12:00 AM 49 °F 40 °F 64% 30.24 in 6 mi Calm Calm - -  
12:00 AM 50.0 °F 41.0 °F 71% 30.24 in - SSE 4.6 mph - N/A   Clear
1:00 AM 48.2 °F 41.0 °F 76% 30.24 in - South 4.6 mph - N/A   Clear
2:00 AM 53.6 °F 39.2 °F 58% 30.21 in - SSE 6.9 mph - N/A   Clear
3:00 AM 55.4 °F 35.6 °F 47% 30.24 in - South 5.8 mph - N/A   Clear
4:00 AM 55.4 °F 35.6 °F 47% 30.24 in - South 5.8 mph - N/A   Clear
5:00 AM 51.8 °F 33.8 °F 50% 30.12 in - South 5.8 mph - N/A   Clear
6:00 AM 54 °F 34 °F 34% 30.14 in 6 mi SSE 6.9 mph - -  
6:00 AM 53.6 °F 33.8 °F 47% 30.15 in - SSE 6.9 mph - N/A   Clear
7:00 AM 53.6 °F 33.8 °F 47% 30.15 in - SSE 8.1 mph - N/A   Clear
8:00 AM 53.6 °F 33.8 °F 47% 30.15 in - SSE 9.2 mph - N/A   Clear
9:00 AM 61 °F 35 °F 25% 30.13 in 6 mi SSE 4.6 mph - -  
9:00 AM 60.8 °F 33.8 °F 36% 30.15 in - SSE 4.6 mph - N/A   Clear
10:00 AM 66.2 °F 37.4 °F 35% 30.15 in - SSE 8.1 mph - N/A   Clear
11:00 AM 73.4 °F 37.4 °F 27% 30.15 in - ESE 3.5 mph - N/A   Clear
12:00 PM 77 °F 37 °F 14% 30.03 in 6 mi SE 2.3 mph - -  
12:00 PM 77.0 °F 37.4 °F 24% 30.12 in - SE 2.3 mph - N/A   Clear
1:00 PM 77.0 °F 42.8 °F 29% 30.09 in - NE 2.3 mph - N/A   Clear
2:00 PM 77.0 °F 37.4 °F 24% 30.06 in - North 2.3 mph - N/A   Clear
3:00 PM 76 °F 29 °F 9% 29.97 in 7 mi West 8.1 mph - -   Clear
3:00 PM 75.2 °F 28.4 °F 18% 30.06 in - West 8.1 mph - N/A   Clear
9:00 PM 58 °F 40 °F 40% 30.06 in 6 mi South 6.9 mph - -